When you browse on this site, cookies collect data to enhance your experience and personalize the content and advertising you see.
Visit our Privacy Policy to learn more. By continuing to use the site, you agree to this use of cookies and data.
  • En España
  • Lista de países
  • Para 7 días
  • Temperatura del agua
  • Mapa Satelital
  • El tiempo en el mapa
  • Informadores
  • user-avatar
    Iniciar sesión

    Tiempo cada hora Bashino

    Hoy, 20 Marzo, Miércoles

    Tiempo Temperatura Precipitaciones Viento Presión Humedad
    00:00 0°C° 0 mm 3 mps 747 mmHg 97%
    01:00 0°C° 0 mm 3 mps 747 mmHg 97%
    02:00 -1°C° 0 mm 3 mps 747 mmHg 97%
    03:00 -1°C° 0 mm 3 mps 747 mmHg 96%
    04:00 -1°C° 0 mm 3 mps 747 mmHg 96%
    05:00 -1°C° 0 mm 3 mps 747 mmHg 95%
    06:00 -1°C° 0 mm 3 mps 747 mmHg 94%
    07:00 -1°C° 0 mm 3 mps 747 mmHg 92%
    08:00 0°C° 0 mm 3 mps 747 mmHg 91%
    09:00 0°C° 0 mm 3 mps 748 mmHg 89%
    10:00 +1°C° 0 mm 3 mps 748 mmHg 86%
    11:00 +2°C° 0 mm 3 mps 748 mmHg 82%
    12:00 +3°C° 0 mm 3 mps 748 mmHg 78%
    13:00 +3°C° 0 mm 3 mps 748 mmHg 76%
    14:00 +3°C° 0 mm 3 mps 748 mmHg 75%
    15:00 +3°C° 0 mm 3 mps 748 mmHg 74%
    16:00 +2°C° 0 mm 3 mps 748 mmHg 77%
    17:00 +2°C° 0 mm 3 mps 748 mmHg 81%
    18:00 +2°C° 0 mm 2 mps 748 mmHg 84%
    19:00 +1°C° 0 mm 2 mps 748 mmHg 86%
    20:00 -1°C° 0 mm 2 mps 748 mmHg 89%
    21:00 -2°C° 0 mm 2 mps 748 mmHg 91%
    22:00 -2°C° 0 mm 2 mps 748 mmHg 91%
    23:00 -2°C° 0 mm 2 mps 748 mmHg 90%

    Mañana, 21 Marzo, Jueves

    Tiempo Temperatura Precipitaciones Viento Presión Humedad
    00:00 -2°C° 0 mm 2 mps 748 mmHg 90%
    01:00 -2°C° 0 mm 2 mps 748 mmHg 88%
    02:00 -2°C° 0 mm 3 mps 748 mmHg 86%
    03:00 -2°C° 0 mm 3 mps 748 mmHg 84%
    04:00 -2°C° 0 mm 3 mps 747 mmHg 82%
    05:00 -1°C° 0 mm 3 mps 747 mmHg 80%
    06:00 -1°C° 0 mm 3 mps 746 mmHg 78%
    07:00 -1°C° 0 mm 3 mps 746 mmHg 77%
    08:00 -2°C° 0 mm 4 mps 745 mmHg 75%
    09:00 -1°C° 0 mm 5 mps 745 mmHg 74%
    10:00 -1°C° 0.2 mm 5 mps 745 mmHg 77%
    11:00 -1°C° 0.2 mm 5 mps 744 mmHg 80%
    12:00 -1°C° 0.2 mm 5 mps 744 mmHg 83%
    13:00 0°C° 0.1 mm 4 mps 744 mmHg 83%
    14:00 0°C° 0.1 mm 4 mps 744 mmHg 83%
    15:00 +1°C° 0.1 mm 3 mps 744 mmHg 83%
    16:00 +1°C° 0.1 mm 3 mps 744 mmHg 86%
    17:00 +1°C° 0.1 mm 3 mps 744 mmHg 88%
    18:00 +1°C° 0.1 mm 3 mps 744 mmHg 91%
    19:00 0°C° 0.1 mm 4 mps 744 mmHg 89%
    20:00 -1°C° 0.1 mm 4 mps 744 mmHg 88%
    21:00 -1°C° 0.1 mm 4 mps 745 mmHg 87%
    22:00 -1°C° 0 mm 4 mps 745 mmHg 88%
    23:00 -2°C° 0 mm 4 mps 745 mmHg 90%

    Pasado mañana, 22 Marzo, Viernes

    Tiempo Temperatura Precipitaciones Viento Presión Humedad
    00:00 -3°C° 0 mm 4 mps 745 mmHg 91%
    01:00 -2°C° 0 mm 3 mps 745 mmHg 92%
    02:00 -2°C° 0 mm 3 mps 745 mmHg 92%
    03:00 -2°C° 0 mm 3 mps 745 mmHg 93%
    04:00 -2°C° 0 mm 2 mps 745 mmHg 92%
    05:00 -2°C° 0 mm 2 mps 745 mmHg 91%
    06:00 -2°C° 0 mm 2 mps 745 mmHg 90%
    07:00 -1°C° 0 mm 2 mps 745 mmHg 89%
    08:00 0°C° 0 mm 3 mps 745 mmHg 87%
    09:00 0°C° 0 mm 3 mps 744 mmHg 85%
    10:00 +1°C° 0.1 mm 3 mps 744 mmHg 84%
    11:00 +2°C° 0.1 mm 3 mps 743 mmHg 82%
    12:00 +1°C° 0.1 mm 4 mps 743 mmHg 81%
    13:00 +1°C° 0.4 mm 4 mps 742 mmHg 83%
    14:00 +1°C° 0.4 mm 4 mps 742 mmHg 85%
    15:00 +1°C° 0.4 mm 5 mps 741 mmHg 87%
    16:00 +1°C° 0 mm 5 mps 741 mmHg 89%
    17:00 +1°C° 0 mm 4 mps 741 mmHg 92%
    18:00 +1°C° 0 mm 4 mps 741 mmHg 94%
    19:00 +1°C° 0 mm 4 mps 741 mmHg 92%
    20:00 +1°C° 0 mm 5 mps 741 mmHg 91%
    21:00 +1°C° 0 mm 5 mps 742 mmHg 89%
    22:00 0°C° 0 mm 5 mps 742 mmHg 89%
    23:00 -1°C° 0 mm 5 mps 742 mmHg 89%

    23 Marzo, Sábado

    Tiempo Temperatura Precipitaciones Viento Presión Humedad
    00:00 -1°C° 0 mm 5 mps 742 mmHg 89%
    01:00 -2°C° 0 mm 5 mps 742 mmHg 88%
    02:00 -2°C° 0 mm 5 mps 742 mmHg 86%
    03:00 -4°C° 0 mm 5 mps 742 mmHg 84%
    04:00 -4°C° 0 mm 5 mps 743 mmHg 84%
    05:00 -4°C° 0 mm 4 mps 743 mmHg 85%
    06:00 -4°C° 0 mm 4 mps 743 mmHg 85%
    07:00 -3°C° 0 mm 4 mps 743 mmHg 83%
    08:00 -3°C° 0 mm 4 mps 743 mmHg 81%
    09:00 -2°C° 0 mm 4 mps 743 mmHg 79%
    10:00 -1°C° 0 mm 4 mps 743 mmHg 75%
    11:00 0°C° 0 mm 4 mps 743 mmHg 71%
    12:00 +1°C° 0 mm 4 mps 743 mmHg 67%
    13:00 +1°C° 0 mm 4 mps 743 mmHg 66%
    14:00 +3°C° 0 mm 3 mps 743 mmHg 65%
    15:00 +4°C° 0 mm 3 mps 742 mmHg 64%
    16:00 +3°C° 0 mm 3 mps 742 mmHg 68%
    17:00 +2°C° 0 mm 3 mps 741 mmHg 72%
    18:00 +3°C° 0 mm 2 mps 740 mmHg 76%
    19:00 +2°C° 0 mm 3 mps 740 mmHg 78%
    20:00 +1°C° 0 mm 4 mps 739 mmHg 80%
    21:00 +1°C° 0 mm 5 mps 739 mmHg 81%
    22:00 +1°C° 0.1 mm 5 mps 738 mmHg 85%
    23:00 +2°C° 0.1 mm 6 mps 737 mmHg 89%

    24 Marzo, Domingo

    Tiempo Temperatura Precipitaciones Viento Presión Humedad
    00:00 +3°C° 0.1 mm 6 mps 736 mmHg 93%
    01:00 +3°C° 0.6 mm 6 mps 736 mmHg 93%
    02:00 +3°C° 0.6 mm 6 mps 736 mmHg 92%
    03:00 +3°C° 0.6 mm 6 mps 736 mmHg 92%
    04:00 +2°C° 0 mm 6 mps 736 mmHg 91%
    05:00 0°C° 0 mm 5 mps 736 mmHg 89%
    06:00 -1°C° 0 mm 5 mps 736 mmHg 88%
    07:00 -2°C° 0 mm 6 mps 737 mmHg 81%
    08:00 -1°C° 0 mm 6 mps 737 mmHg 74%
    09:00 -1°C° 0 mm 7 mps 737 mmHg 68%
    10:00 0°C° 0 mm 8 mps 737 mmHg 61%
    11:00 +1°C° 0 mm 9 mps 737 mmHg 54%
    12:00 +1°C° 0 mm 10 mps 736 mmHg 48%
    13:00 +1°C° 0 mm 10 mps 736 mmHg 48%
    14:00 +2°C° 0 mm 10 mps 736 mmHg 48%
    15:00 +2°C° 0 mm 10 mps 736 mmHg 48%
    16:00 +1°C° 0 mm 9 mps 736 mmHg 51%
    17:00 0°C° 0 mm 8 mps 736 mmHg 54%
    18:00 0°C° 0 mm 7 mps 735 mmHg 57%
    19:00 -1°C° 0 mm 7 mps 735 mmHg 60%
    20:00 -1°C° 0 mm 6 mps 736 mmHg 63%
    21:00 -2°C° 0 mm 6 mps 736 mmHg 65%
    22:00 -3°C° 0 mm 6 mps 736 mmHg 65%
    23:00 -3°C° 0 mm 6 mps 736 mmHg 65%

    25 Marzo, Lunes

    Tiempo Temperatura Precipitaciones Viento Presión Humedad
    00:00 -3°C° 0 mm 6 mps 736 mmHg 66%
    01:00 -4°C° 0 mm 6 mps 736 mmHg 65%
    02:00 -4°C° 0 mm 6 mps 736 mmHg 65%
    03:00 -4°C° 0 mm 6 mps 736 mmHg 65%
    04:00 -4°C° 0 mm 6 mps 736 mmHg 65%
    05:00 -5°C° 0 mm 5 mps 736 mmHg 66%
    06:00 -5°C° 0 mm 5 mps 736 mmHg 66%
    07:00 -4°C° 0 mm 5 mps 736 mmHg 62%
    08:00 -3°C° 0 mm 6 mps 736 mmHg 59%
    09:00 -3°C° 0 mm 6 mps 736 mmHg 55%
    10:00 -2°C° 0 mm 6 mps 735 mmHg 51%
    11:00 0°C° 0 mm 5 mps 735 mmHg 47%
    12:00 +2°C° 0 mm 5 mps 735 mmHg 42%
    13:00 +2°C° 0 mm 5 mps 734 mmHg 42%
    14:00 +3°C° 0 mm 5 mps 734 mmHg 41%
    15:00 +3°C° 0 mm 5 mps 733 mmHg 41%
    16:00 +3°C° 0.1 mm 5 mps 733 mmHg 49%
    17:00 +3°C° 0.1 mm 4 mps 732 mmHg 57%
    18:00 +2°C° 0.1 mm 3 mps 732 mmHg 65%
    19:00 +2°C° 0.1 mm 3 mps 731 mmHg 68%
    20:00 +1°C° 0.1 mm 3 mps 731 mmHg 71%
    21:00 +1°C° 0.1 mm 3 mps 730 mmHg 74%
    22:00 0°C° 0.1 mm 3 mps 730 mmHg 79%
    23:00 0°C° 0.1 mm 3 mps 729 mmHg 83%
    Mostrar más